EW3923 Weather Reports


Display with metric or nautical units.
time (UTC)temp
F
wind
direction
speed
MPH
gust
MPH
rain 1hr
in
rain 24hr
in
rain mn
in
humidity
%
barometer
mb
20260503201915 65 248 1.0 4.0 0.00 0.00 0.00 56 1013.5
20260503200915 65 180 1.0 2.0 0.00 0.00 0.00 58 1013.5
20260503195915 65 225 1.0 3.0 0.00 0.00 0.00 57 1013.6
20260503194915 65 270 4.0 7.0 0.00 0.00 0.00 56 1013.4
20260503193915 65 225 3.0 5.0 0.00 0.00 0.00 57 1013.5
20260503192916 65 203 2.0 5.0 0.00 0.00 0.00 55 1013.5
20260503191915 65 135 3.0 7.0 0.00 0.00 0.00 54 1013.6
20260503190915 65 270 1.0 2.0 0.00 0.00 0.00 57 1013.7
20260503185915 64 270 1.0 2.0 0.00 0.00 0.00 59 1013.8
20260503184915 64 0.0 0.0 0.00 0.00 0.00 60 1013.8
20260503183915 63 270 1.0 2.0 0.00 0.00 0.00 61 1013.8
20260503182935 62 203 1.0 3.0 0.00 0.00 0.00 63 1013.9
20260503181915 62 180 2.0 4.0 0.00 0.00 0.00 63 1013.9
20260503180915 62 0.0 2.0 0.00 0.00 0.00 66 1013.8
20260503175915 61 203 1.0 2.0 0.00 0.00 0.00 68 1013.9
20260503174915 60 180 2.0 4.0 0.00 0.00 0.00 70 1013.9
20260503173915 60 203 1.0 3.0 0.00 0.00 0.00 70 1013.9
20260503172915 59 248 2.0 4.0 0.00 0.00 0.00 69 1013.9
20260503171915 60 248 1.0 2.0 0.00 0.00 0.00 68 1013.9
20260503170915 61 270 1.0 3.0 0.00 0.00 0.00 68 1013.9
20260503150917 57 180 1.0 3.0 0.00 0.00 0.00 74 1013.3
20260503130916 55 270 1.0 2.0 0.00 0.00 0.00 78 1012.0
20260503080916 56 0.0 1.0 0.00 0.00 0.00 77 1012.6
20260503072936 56 0.0 0.0 0.00 0.00 0.00 77 1012.6
20260503071916 56 0.0 0.0 0.00 0.00 0.00 77 1012.7
20260503070916 56 0.0 1.0 0.00 0.00 0.00 76 1012.6
20260503054916 57 0.0 1.0 0.00 0.00 0.00 75 1012.8
20260503053916 57 293 1.0 2.0 0.00 0.00 0.00 75 1012.9
20260503052916 57 315 1.0 2.0 0.00 0.00 0.00 75 1012.8
20260503051916 57 0.0 1.0 0.00 0.00 0.00 75 1013.0
20260503050916 57 315 1.0 3.0 0.00 0.00 0.00 74 1012.9
20260503045916 57 315 1.0 2.0 0.00 0.00 0.00 74 1012.8
20260503044916 57 0.0 1.0 0.00 0.00 0.00 74 1012.7
20260503043936 57 315 2.0 7.0 0.00 0.00 0.00 74 1012.6
20260503042916 57 0.0 1.0 0.00 0.00 0.00 74 1012.7
20260503041916 57 338 1.0 4.0 0.00 0.00 0.00 74 1012.6
20260503040917 57 0.0 1.0 0.00 0.00 0.00 74 1012.5
20260503035921 58 23 1.0 3.0 0.00 0.00 0.00 73 1012.4
20260503034936 58 0 1.0 2.0 0.00 0.00 0.00 73 1012.3
20260503033916 58 0 1.0 3.0 0.00 0.00 0.00 72 1012.3
20260503032916 58 0 2.0 4.0 0.00 0.00 0.00 71 1012.1
20260503031916 58 338 3.0 5.0 0.00 0.00 0.00 71 1012.1
20260503030916 59 315 1.0 2.0 0.00 0.00 0.00 70 1011.9
20260503025916 59 0 2.0 3.0 0.00 0.00 0.00 70 1011.9
20260503024936 59 45 4.0 8.0 0.00 0.00 0.00 69 1011.8
20260503023916 60 23 4.0 7.0 0.00 0.00 0.00 69 1011.8
20260503022916 60 0 4.0 6.0 0.00 0.00 0.00 68 1011.6
20260503021916 61 23 4.0 7.0 0.00 0.00 0.00 68 1011.5
20260503020936 61 45 1.0 3.0 0.00 0.00 0.00 68 1011.6
20260503015936 62 315 3.0 6.0 0.00 0.00 0.00 68 1011.5
20260503014916 62 23 2.0 4.0 0.00 0.00 0.00 68 1011.6
20260503013916 62 23 1.0 4.0 0.00 0.00 0.00 68 1011.5
20260503012916 63 23 4.0 9.0 0.00 0.00 0.00 67 1011.6
20260503011916 63 0 2.0 6.0 0.00 0.00 0.00 66 1011.5
20260503010916 64 0 3.0 5.0 0.00 0.00 0.00 66 1011.6
20260503005915 64 0 3.0 5.0 0.00 0.00 0.00 65 1011.5
20260503004936 65 23 5.0 7.0 0.00 0.00 0.00 65 1011.4
20260503003916 65 23 2.0 5.0 0.00 0.00 0.00 64 1011.5
20260503002915 65 23 3.0 7.0 0.00 0.00 0.00 64 1011.6
20260503001935 66 23 4.0 9.0 0.00 0.00 0.00 62 1011.6
20260503000915 67 338 2.0 5.0 0.00 0.00 0.00 61 1011.6
20260502235916 68 23 4.0 8.0 0.00 0.00 0.00 59 1011.7
20260502234916 68 0 4.0 10.0 0.00 0.00 0.00 59 1011.7
20260502233916 68 315 2.0 5.0 0.00 0.00 0.00 61 1011.6
20260502232915 68 0 2.0 5.0 0.00 0.00 0.00 60 1011.9
20260502231915 69 23 4.0 6.0 0.00 0.00 0.00 60 1011.9
20260502230916 69 338 2.0 4.0 0.00 0.00 0.00 59 1011.9
20260502225916 69 0 2.0 4.0 0.00 0.00 0.00 60 1012.2
20260502224915 69 0 3.0 7.0 0.00 0.00 0.00 60 1012.2
20260502223916 69 23 3.0 8.0 0.00 0.00 0.00 59 1012.4
20260502222915 70 45 4.0 7.0 0.00 0.00 0.00 58 1012.6
20260502221915 70 23 4.0 7.0 0.00 0.00 0.00 58 1012.8
20260502220918 71 23 2.0 3.0 0.00 0.00 0.00 57 1013.0
20260502215917 71 0 3.0 6.0 0.00 0.00 0.00 59 1013.1
20260502214915 70 23 4.0 7.0 0.00 0.00 0.00 59 1013.1
20260502213915 70 23 3.0 9.0 0.00 0.00 0.00 61 1013.2
20260502212915 69 315 3.0 6.0 0.00 0.00 0.00 61 1013.3
20260502211915 69 45 2.0 4.0 0.00 0.00 0.00 62 1013.4
20260502210935 68 45 4.0 8.0 0.00 0.00 0.00 61 1013.4
20260502205915 68 45 3.0 5.0 0.00 0.00 0.00 63 1013.5
20260502204915 68 0 3.0 7.0 0.00 0.00 0.00 62 1013.8
20260502203918 68 45 4.0 6.0 0.00 0.00 0.00 62 1013.8
20260502202915 68 23 2.0 4.0 0.00 0.00 0.00 62 1013.9